Weather in Madeira Beach

United States     27°47′52″N   82°47′51″W
temp.,
°C
wind,
m/s
gust,
m/s
humid.,
%
clouds,
%
prec.,
mm/h
press.,
hPa
HPBL,
m
16 may, sun
sun1623:00+23e1011630 0.0 10211053
02:00+23ene911625 0.0 1020883
05:00+22ene8106387 0.0 1020657
08:00+22ene8106198 0.0 1022580
11:00+25ene665089 0.0 10221027
14:00+27ne2440100 0.0 1021998
17:00+28nnw344443 0.0 1018783
20:00+27ne574949 0.0 1018469
17 may, mon
mon1723:00+23e10125825 0.0 1021923
02:00+22e8116398 0.0 1020727
05:00+21e79679 0.0 1019556
08:00+22e7968100 0.0 1020565
11:00+24e565359 0.0 10211098
14:00+27e244134 0.0 1019791
17:00+27w55485 0.0 10171045
20:00+26nw555469 0.0 1018363
18 may, tue
tue1823:00+25e10125661 0.0 1020930
02:00+23ese81165100 0.0 1019639
05:00+22ese71073100 0.0 1019569
08:00+22e7976100 0.0 1020570
11:00+26e67575 0.0 10211206
14:00+29ene565136 0.0 1018922
17:00+29ene12145390 0.0 1017750
20:00+28e71052100 0.0 1018701
19 may, wed
wed1923:00+24e1013730 0.0 1020820
02:00+23e1013805 0.0 1019781
05:00+23e912797 0.0 1018813
08:00+23e811725 0.0 1020766
11:00+27ene79604 0.0 10201440
14:00+30ene46460 0.0 1018840
17:00+29e13145386 0.0 1016842
20:00+27e1213665 0.2 10181002
20 may, thu
thu2023:00+24e1114735 0.3 10201020
02:00+23e10147648 0.3 1020939
05:00+23e101371100 0.0 1020996
08:00+24e11136236 0.0 10211182
11:00+27e9115339 0.0 10211582
14:00+29ene9104595 0.0 1020905
17:00+28ene12134762 0.0 1019981
20:00+26ene12135781 0.0 10201497